EW4288 Weather Reports


time (UTC)temp
F
wind
direction
speed
knots
gust
knots
rain 1hr
in
rain 24hr
in
rain mn
in
humidity
%
barometer
mb
20260505101503 57 73 6.1 12.2 0.00 0.00 0.00 52 1007.4
20260505100002 57 86 3.5 8.7 0.00 0.00 0.00 52 1007.3
20260505094600 57 13 1.7 7.0 0.00 0.00 0.00 52 1007.2
20260505093108 57 67 1.7 9.6 0.00 0.00 0.00 51 1007.0
20260505091558 58 80 4.3 10.4 0.00 0.00 0.00 51 1006.9
20260505090055 58 57 5.2 9.6 0.00 0.00 0.00 51 1006.8
20260505084554 58 69 4.3 8.7 0.00 0.00 0.00 51 1006.6
20260505083052 59 57 5.2 8.7 0.00 0.00 0.00 51 1006.5
20260505081558 59 49 4.3 8.7 0.00 0.00 0.00 51 1006.4
20260505080055 57 69 1.7 7.0 0.00 0.00 0.00 54 1006.3
20260505074548 55 104 0.9 2.6 0.00 0.00 0.00 61 1006.2
20260505073049 55 69 1.7 3.5 0.00 0.00 0.00 61 1006.1
20260505071551 60 88 2.6 7.0 0.00 0.00 0.00 50 1006.0
20260505070039 59 123 2.6 4.3 0.00 0.00 0.00 50 1005.8
20260505064541 60 87 0.9 5.2 0.00 0.00 0.00 50 1005.7
20260505063038 60 70 2.6 7.0 0.00 0.00 0.00 49 1005.5
20260505061537 60 69 3.5 5.2 0.00 0.00 0.00 50 1005.6
20260505060037 60 78 3.5 5.2 0.00 0.00 0.00 50 1005.5
20260505054550 61 73 2.6 5.2 0.00 0.00 0.00 49 1005.4
20260505053052 61 107 2.6 6.1 0.00 0.00 0.00 48 1005.2
20260505051541 60 61 2.6 4.3 0.00 0.00 0.00 50 1005.2
20260505041534 63 159 0.9 4.3 0.00 0.00 0.00 47 1004.7
20260505040041 64 190 0.9 1.7 0.00 0.00 0.00 44 1004.5
20260505034533 66 72 0.9 2.6 0.00 0.00 0.00 42 1004.3
20260505033040 67 105 0.9 4.3 0.00 0.00 0.00 39 1004.2
20260505031533 69 55 2.6 8.7 0.00 0.00 0.00 36 1004.1
20260505030033 69 65 2.6 6.1 0.00 0.00 0.00 35 1003.9
20260505024532 70 61 3.5 9.6 0.00 0.00 0.00 35 1003.9
20260505023031 71 57 5.2 9.6 0.00 0.00 0.00 33 1003.8
20260505021532 72 64 5.2 13.9 0.00 0.00 0.00 33 1003.7
20260505020031 73 80 3.5 10.4 0.00 0.00 0.00 32 1003.6
20260505014530 73 94 4.3 12.2 0.00 0.00 0.00 31 1003.6
20260505013030 74 34 6.1 11.3 0.00 0.00 0.00 30 1003.6
20260505011529 75 63 6.1 11.3 0.00 0.00 0.00 30 1003.7
20260505010029 75 68 6.1 12.2 0.00 0.00 0.00 30 1003.7
20260505004528 75 52 5.2 11.3 0.00 0.00 0.00 32 1003.7
20260505003027 76 54 5.2 13.0 0.00 0.00 0.00 29 1003.6
20260505001527 78 74 6.1 12.2 0.00 0.00 0.00 30 1003.6
20260505000028 77 73 7.0 12.2 0.00 0.00 0.00 29 1003.6
20260504234526 78 37 3.5 10.4 0.00 0.00 0.00 30 1003.6
20260504233025 76 80 4.3 13.0 0.00 0.00 0.00 31 1003.7
20260504231523 79 94 5.2 13.9 0.00 0.00 0.00 30 1003.6
20260504230026 79 59 2.6 11.3 0.00 0.00 0.00 33 1003.8
20260504224521 78 103 3.5 8.7 0.00 0.00 0.00 31 1003.8
20260504223019 78 47 3.5 11.3 0.00 0.00 0.00 32 1003.9
20260504221522 78 69 3.5 12.2 0.00 0.00 0.00 32 1004.0
20260504220022 79 11 6.1 12.2 0.00 0.00 0.00 31 1003.9
20260504214517 78 56 3.5 8.7 0.00 0.00 0.00 31 1004.1
20260504213015 77 69 2.6 8.7 0.00 0.00 0.00 31 1004.2
20260504211512 78 55 4.3 7.8 0.00 0.00 0.00 33 1004.3
20260504210011 78 5 3.5 9.6 0.00 0.00 0.00 36 1004.3
20260504204511 78 42 4.3 8.7 0.00 0.00 0.00 35 1004.5
20260504203011 77 108 2.6 8.7 0.00 0.00 0.00 34 1004.5
20260504201507 76 101 2.6 7.8 0.00 0.00 0.00 34 1004.6
20260504200006 75 51 2.6 8.7 0.00 0.00 0.00 34 1004.6
20260504194504 76 95 4.3 8.7 0.00 0.00 0.00 34 1004.7
20260504193003 75 59 5.2 11.3 0.00 0.00 0.00 36 1004.8
20260504191501 74 109 4.3 9.6 0.00 0.00 0.00 35 1005.0
20260504190111 73 75 5.2 11.3 0.00 0.00 0.00 36 1005.0
20260504184615 74 65 5.2 10.4 0.00 0.00 0.00 39 1005.2
20260504183101 73 76 6.1 11.3 0.00 0.00 0.00 39 1005.2
20260504181556 72 70 5.2 13.0 0.00 0.00 0.00 39 1005.3
20260504180054 72 73 4.3 7.8 0.00 0.00 0.00 41 1005.3
20260504174552 71 35 3.5 9.6 0.00 0.00 0.00 41 1005.4
20260504173055 69 46 5.2 13.0 0.00 0.00 0.00 43 1005.4
20260504171547 66 76 6.1 10.4 0.00 0.00 0.00 44 1005.4